LiveATC.Net - Listen to live air traffic control over the Internet!


ICAO: MMLP  IATA: LAP   Airport: Gen Manuel Marquez Airport
City: La Paz
Country: Mexico   Continent: North America
MMLP METAR Weather: MMLP 081944Z 33009KT 10SM FEW025 36/15 A2983 RMK 8/100 HZ ISOL AC
MMLP Flight Activity (FlightAware)

MMLP Twr/App
Feed Status: UP   Listeners: 1
Listen in your browser - HTML5 player (in browser, HTML5)
Click here to listen with your own player (launches your MP3 player)
Archive Access: MMLP Twr/App
FacilityFrequency
La Paz Approach120.600
La Paz Tower118.100

NOTICE

Unauthorized use prohibited. See LiveATC.net Terms of Service


Airport/ARTCC Code
Frequency Search
(e.g., 124.400, 128.75)
Site-wide search
 


Browse Feeds
Top 50 Feeds
Coverage Map
Bad Weather Areas

LiveATC FAQ
Offer LiveATC feed
Contact LiveATC.net
Press Inquiries

LiveATC on iPhone
LiveATC on Android

Windows Phone
Windows 8/10

LiveATC Mobile
(Mobile browser)

ATC Audio Archives
Interesting Recordings

LiveATC Forums


Home Page
About LiveATC.net
Make a Donation
Terms of Use
Privacy Policy

Canadian Air Freqs

AIRMETs/SIGMETs

FAA Airport Status
Nat'l Airspace Status
Arrival Demand Charts


Server Software By:
Icecast.org
Liquidsoap